[Iaude] MPEC U07: 2023 TP15 [a=2.92,e=0.78,i=14.1,H=25.9]

mpec at marsden.cfa.harvard.edu mpec at marsden.cfa.harvard.edu
Mon Oct 16 09:23:59 EDT 2023


M.P.E.C. 2023-U07                              Issued 2023 October 16, 13:22 UT

     The Minor Planet Electronic Circulars contain information on unusual
         minor planets, routine data on comets and natural satellites,
         and occasional editorial announcements.  They are published
    on behalf of Division F of the International Astronomical Union by the
          Minor Planet Center, Smithsonian Astrophysical Observatory,
                          Cambridge, MA 02138, U.S.A.
			  
             Prepared using the Tamkin Foundation Computer Network

                              MPC at CFA.HARVARD.EDU
            URL https://www.minorplanetcenter.net/    ISSN 1523-6714

                                   2023 TP15                                    


Observations:
     K23T15P*1C2023 10 15.29413801 27 55.426+10 36 09.94         18.16GVEU007703
     K23T15P 1C2023 10 15.29910101 27 49.464+10 38 52.73         18.14GVEU007703
     K23T15P 1C2023 10 15.29954201 27 48.917+10 39 07.81         18.51GVEU007703
     K23T15P 1C2023 10 15.30451201 27 43.049+10 41 49.52         17.91GVEU007703
     K23T15P 1C2023 10 15.30495401 27 42.552+10 42 03.85         18.26GVEU007703
     K23T15P 1C2023 10 15.30991101 27 36.659+10 44 43.37         18.19GVEU007703
     K23T15P mC2023 10 15.33659501 27 05.663+10 58 54.41         18.07GVEU007I52
     K23T15P mC2023 10 15.33676501 27 05.465+10 58 59.66         18.08GVEU007I52
     K23T15P mC2023 10 15.33693601 27 05.267+10 59 04.96         18.21GVEU007I52
     K23T15P mC2023 10 15.33711401 27 05.072+10 59 10.86         18.36GVEU007I52
     K23T15P mC2023 10 15.43291401 25 21.788+11 46 40.69         18.12GVEU007I52
     K23T15P mC2023 10 15.43308501 25 21.626+11 46 45.37         18.10GVEU007I52
     K23T15P mC2023 10 15.43325501 25 21.436+11 46 50.48         18.36GVEU007I52
     K23T15P mC2023 10 15.43342501 25 21.277+11 46 55.13         18.35GVEU007I52
     K23T15P KC2023 10 15.54848301 24 02.11 +12 38 33.9          18.2 GVEU007900
     K23T15P KC2023 10 15.55584101 23 55.18 +12 41 41.7          18.0 GVEU007900
     K23T15P KC2023 10 15.56319901 23 48.29 +12 44 48.1          18.1 GVEU007900
     K23T15P KC2023 10 15.71159501 21 37.83 +13 42 39.4          18.3 GVEU007900
     K23T15P KC2023 10 15.71895401 21 31.88 +13 45 18.4          18.7 GVEU007900
     K23T15P KC2023 10 15.72631301 21 26.02 +13 47 55.9          18.0 GVEU007900
     K23T15P KC2023 10 15.75925501 21 26.16 +13 58 15.6          17.8 RVEU007K61
     K23T15P KC2023 10 15.76161401 21 24.45 +13 59 06.1          18.3 RVEU007K61
     K23T15P KC2023 10 15.76276801 21 23.59 +13 59 30.5          18.0 RVEU007K61
     K23T15P KC2023 10 15.76423001 21 22.54 +14 00 01.3          18.0 RVEU007K61
     K23T15P KC2023 10 15.76469101 21 22.21 +14 00 11.1          18.1 RVEU007K61
     K23T15P KB2023 10 15.79833701 20 58.169+14 11 45.98         18.3 GXEU007B72
     K23T15P KB2023 10 15.80290501 20 54.893+14 13 19.46         18.3 GXEU007B72
     K23T15P KB2023 10 15.80753701 20 51.541+14 14 54.87         18.6 GXEU007B72
     K23T15P KC2023 10 15.80927 01 20 49.29 +14 15 31.4          18.7 GVEU007C43
     K23T15P KC2023 10 15.81131 01 20 47.81 +14 16 12.7          18.8 GVEU007C43
     K23T15P KC2023 10 15.81338 01 20 46.28 +14 16 54.4          18.9 GVEU007C43
     K23T15P KC2023 10 15.83882901 20 29.81 +14 25 52.2          18.2 GVEU007104
     K23T15P KC2023 10 15.84213301 20 26.873+14 26 34.80         18.9 GVEU007A17
     K23T15P KC2023 10 15.84287701 20 26.94 +14 27 12.3          18.6 GVEU007104
     K23T15P 1C2023 10 15.84407 01 20 19.85 +14 27 43.9          18.4 GVEU007C40
     K23T15P KC2023 10 15.84692501 20 23.97 +14 28 32.2          18.1 GVEU007104
     K23T15P KC2023 10 15.84939401 20 21.706+14 28 57.65         18.8 GVEU007A17
     K23T15P 1C2023 10 15.85056 01 20 15.05 +14 29 50.8          18.9 GVEU007C40
     K23T15P KC2023 10 15.85488001 20 17.794+14 30 45.25         18.6 GVEU007A17
     K23T15P 1C2023 10 15.85697 01 20 10.34 +14 31 55.4          18.6 GVEU007C40
     K23T15P KB2023 10 15.86637301 20 09.283+14 34 28.99         18.3 GXEU007K74
     K23T15P KB2023 10 15.86995501 20 06.775+14 35 38.15         18.4 GXEU007K74
     K23T15P 1C2023 10 15.87000 01 20 00.83 +14 36 07.6          18.5 GVEU007C40
     K23T15P KB2023 10 15.87353801 20 04.226+14 36 46.91         18.4 GXEU007K74
     K23T15P 1C2023 10 15.87553 01 19 56.84 +14 37 52.1          18.7 GVEU007C40
     K23T15P 1C2023 10 15.88104 01 19 52.85 +14 39 36.2          18.5 GVEU007C40
     K23T15P  C2023 10 15.92934101 19 22.973+15 00 13.43         19.02oVEU007M22
     K23T15P  C2023 10 15.95261301 19 06.566+15 07 10.78         19.08oVEU007M22
     K23T15P  C2023 10 15.95540401 19 04.642+15 07 57.14         19.08oVEU007M22
     K23T15P  C2023 10 15.96092201 19 00.799+15 09 35.68         18.92oVEU007M22
     K23T15P  C2023 10 15.96903 01 18 55.10 +15 11 58.1          19.1 GVEU007M28
     K23T15P  C2023 10 15.97108 01 18 53.68 +15 12 33.8          19.1 GVEU007M28
     K23T15P  C2023 10 15.97311 01 18 52.33 +15 13 08.3          19.1 GVEU007M28
     K23T15P bC2023 10 16.04597301 18 07.39 +15 28 08.8          18.6 GVEU007L01
     K23T15P bC2023 10 16.04671301 18 06.94 +15 28 21.0          18.7 GVEU007L01
     K23T15P bC2023 10 16.04745401 18 06.51 +15 28 33.2          18.7 GVEU007L01
     K23T15P bC2023 10 16.04930401 18 05.27 +15 29 03.1          18.8 GVEU007L01
     K23T15P bC2023 10 16.04942701 18 05.20 +15 29 05.0          18.8 GVEU007L01
     K23T15P 1C2023 10 16.23468101 16 41.358+16 17 37.64         20.01GVEU007703
     K23T15P 1C2023 10 16.24014201 16 38.140+16 18 55.76         19.37GVEU007703
     K23T15P 1C2023 10 16.24560801 16 35.072+16 20 13.27         18.96GVEU007703
     K23T15P 1C2023 10 16.25109001 16 31.926+16 21 33.05         19.16GVEU007703

Observer details:
104 San Marcello Pistoiese.  Observers P. Bacci, M. Maestripieri.  Measurers
    P. Bacci, L. Tesi, G. Fagioli.  0.60-m F4 Reflector + CCD.
703 Catalina Sky Survey.  Observer J. K. Hogan.  Measurers E. C. Beshore, D.
    Fay, J. B. Fazekas, D. C. Fuls, A. R. Gibbs, A. D. Grauer, H. Groeller, J.
    K. Hogan, R. A. Kowalski, S. M. Larson, G. J. Leonard, D. Rankin, R. L.
    Seaman, F. C. Shelly, K. W. Wierzchos.  0.68-m Schmidt + 10K CCD.
900 Moriyama.  Observer Y. Ikari.  0.26-m f/7.0 reflector + CCD.
A17 Guidestar Observatory, Weinheim.  Observers M. Emmerich, S. Melchert.
    0.36-m f/6.0 Schmidt-Cassegrain + CCD.
B72 Soerth.  Observer B. Koch.  0.36-m f/7.6 reflector + CMO.
C40 Kuban State University Astrophysical Observatory.  Observers A. Ivanov, A.
    Barcov, V. Ivanov, V. Lysenko, N. Yakovenko, N. Ivanova, N. Gorbunov, G.
    Kurbatov, P. Shchukin, V. Roshchupko.  Measurer A. Ivanov.  0.51-m f/8
    reflector + CCD.
C43 Hoyerswerda.  Observer P. Lindner.  0.30-m f/6.3 Schmidt-Cassegrain + CCD.
I52 Steward Observatory, Mt. Lemmon Station.  Observer J. K. Hogan.  Measurers
    E. C. Beshore, D. Fay, J. B. Fazekas, D. C. Fuls, A. R. Gibbs, A. D.
    Grauer, H. Groeller, J. K. Hogan, R. A. Kowalski, S. M. Larson, G. J.
    Leonard, D. Rankin, R. L. Seaman, F. C. Shelly, K. W. Wierzchos.  1.0-m
    prime focus + CCD.
K61 Rokycany Observatory.  Observer M. Adamovsky.  0.51-m f/6.8 reflector +
    CCD.
K74 Muensterschwarzach Observatory, Schwarzach.  Observer C. Gerhard.  0.30-m
    f/3.75 reflector + CMO.
L01 Visnjan Observatory, Tican.  Observer K. Korlevic.  1.0-m f/2.9 reflector
    + CCD.
M22 ATLAS South Africa, Sutherland.  Observers L. Denneau, R. Siverd, J.
    Tonry, H. Weiland.  Measurers L. Denneau, N. Erasmus, A. Fitzsimmons, A.
    Lawrence, J. Robinson, R. Siverd, J. Tonry, H. Weiland.  0.5-m Reflector +
    CCD.
M28 Lesedi Telescope-SAAO Observatory, Sutherland.  Observers N. Erasmus, S.
    Potter, C. van Gend, S. Chandra, H. Worters.  Measurers T. Ngwane, N.
    Erasmus.  1.0-m f/8 Reflector + CCD.

Orbital elements:
2023 TP15                                                Earth MOID = 0.0074 AU
Epoch 2023 Sept. 13.0 TT = JDT 2460200.5                Veres                   
M   2.43614              (2000.0)            P               Q                  
n   0.19786996     Peri.  280.19191     +0.51164522     +0.85461437             
a   2.9166399      Node    21.30453     -0.66141010     +0.45759837             
e   0.7761401      Incl.   14.11762     -0.54841212     +0.24543434             
P   4.98           H   25.98          G   0.15           U   8                  
Residuals in seconds of arc
231015 703  0.1+  0.5+    231015 K61  0.3-  0.6+    231015 C40  0.0   1.5+
231015 703  0.3-  0.3+    231015 K61  0.5-  0.5+    231015 K74  0.1+  0.1-
231015 703  0.6-  1.0+    231015 K61  0.2-  0.2+    231015 C40  0.2+  0.5+
231015 703  0.0   0.5+    231015 K61  0.1-  0.3+    231015 C40  0.1+  0.0
231015 703  0.4+  0.4+    231015 B72  0.1+  0.1+    231015 M22  0.4-  0.3-
231015 703  0.1-  0.9-    231015 B72  0.2+  0.3-    231015 M22  0.0   1.3+
231015 I52  0.1+  0.1+    231015 B72  0.2-  0.4+    231015 M22  0.3+  1.5-
231015 I52  0.0   0.1+    231015 C43  0.0   0.1+    231015 M22  0.2+  0.0
231015 I52  0.0   0.0     231015 C43  0.1-  0.1-    231015 M28  1.2-  0.9+
231015 I52  0.1+  0.3+    231015 C43  0.6-  0.4-    231015 M28  1.3-  1.0+
231015 I52  0.3+  0.1+    231015 104  0.5-  0.1-    231015 M28  0.7-  0.3+
231015 I52  0.4+  0.0     231015 A17  0.1+  0.1+    231016 L01  0.2-  0.1-
231015 I52  0.1+  0.3+    231015 104  0.4+  0.2-    231016 L01  0.1-  0.0
231015 I52  0.3+  0.1+    231015 C40  0.1+  0.2+    231016 L01  0.4+  0.1+
231015 900  0.0   0.0     231015 104  0.2-  0.2-    231016 L01  0.9-  0.3-
231015 900  0.1+  0.1+    231015 A17  0.3+  0.3-    231016 L01  0.8-  0.4-
231015 900  0.4+  0.2+    231015 C40  0.1-  0.2+    231016 703  0.2+  0.2+
231015 900  0.5+  0.2-    231015 A17  0.2+  0.2-    231016 703  0.8-  0.6-
231015 900  0.2+  0.1-    231015 C40  0.1-  0.3+    231016 703  0.2+  1.7-
231015 900  0.4+  0.5-    231015 K74  0.2-  0.2+    231016 703  0.2+  0.4-
231015 K61  0.5-  0.3+    231015 K74  0.3+  0.1+

Ephemeris:
2023 TP15                a,e,i = 2.92, 0.78, 14                  q = 0.6529
Date    TT    R. A. (2000) Decl.     Delta      r    Elong.  Phase     V
2023 09 16    12 46 19.1 -24 41 04   0.3876  0.7121    32.9   129.9    28.9
...
2023 10 01    12 47 43.5 -28 39 35   0.1688  0.8533    26.3   148.7    30.0
...
2023 10 09    12 37 22.9 -33 01 00   0.06132 0.9451    27.4   150.9    28.4
...
2023 10 15    01 34 01.3 +07 27 24   0.02000 1.0174   175.9     4.0    17.9
2023 10 16    01 18 41.3 +15 17 21   0.03267 1.0296   173.3     6.5    19.1
2023 10 17    01 11 40.1 +18 41 06   0.04568 1.0418   169.7     9.8    20.0
...
2023 10 23    01 00 22.0 +23 52 33   0.1256  1.1158   163.0    15.1    22.6
...
2023 10 31    00 58 34.9 +24 58 06   0.2357  1.2149   158.2    17.7    24.2
...
2023 11 15    01 02 47.9 +25 04 10   0.4581  1.3987   147.9    22.1    26.1

M. P. C. Staff               (C) Copyright 2023 MPC           M.P.E.C. 2023-U07





More information about the Iaude mailing list